Time,TemperatureF,DewpointF,PressureIn,WindDirection,WindDirectionDegrees,WindSpeedMPH,WindSpeedGustMPH,Humidity,HourlyPrecipIn,Conditions,Clouds,dailyrainin,SoftwareType,DateUTC
2013-09-04 00:02:00,55.4,50.6,29.03,SSW,202,1.4,0.0,84,0.00,CLR,,0.00,WeatherDisplay:10.37,2013-09-04 05:02:00,
2013-09-04 00:07:00,55.4,50.6,29.03,South,180,0.0,0.0,84,0.00,CLR,,0.00,WeatherDisplay:10.37,2013-09-04 05:07:00,
2013-09-04 00:12:00,55.4,51.0,29.03,South,180,0.0,0.0,85,0.00,CLR,,0.00,WeatherDisplay:10.37,2013-09-04 05:12:00,
2013-09-04 00:17:00,55.4,51.0,29.03,South,180,0.0,0.0,85,0.00,CLR,,0.00,WeatherDisplay:10.37,2013-09-04 05:17:00,
2013-09-04 00:22:00,55.2,50.8,29.03,South,180,0.0,0.0,85,0.00,CLR,,0.00,WeatherDisplay:10.37,2013-09-04 05:22:00,
2013-09-04 00:27:00,55.2,50.8,29.03,South,180,0.0,0.0,85,0.00,CLR,,0.00,WeatherDisplay:10.37,2013-09-04 05:27:00,
2013-09-04 00:32:00,55.0,50.6,29.03,South,180,0.0,0.0,85,0.00,CLR,,0.00,WeatherDisplay:10.37,2013-09-04 05:32:00,
2013-09-04 00:37:00,55.0,50.9,29.03,South,180,0.0,0.0,86,0.00,CLR,,0.00,WeatherDisplay:10.37,2013-09-04 05:37:00,
2013-09-04 00:42:00,54.9,50.8,29.03,SSE,158,1.6,1.6,86,0.00,CLR,,0.00,WeatherDisplay:10.37,2013-09-04 05:42:00,
2013-09-04 00:47:00,54.7,50.6,29.03,SSE,158,1.1,1.6,86,0.00,CLR,,0.00,WeatherDisplay:10.37,2013-09-04 05:47:00,
2013-09-04 00:52:00,54.5,50.4,29.03,SSE,158,0.0,0.0,86,0.00,CLR,,0.00,WeatherDisplay:10.37,2013-09-04 05:52:00,
2013-09-04 00:57:00,54.5,50.4,29.03,SSE,158,0.0,0.0,86,0.00,CLR,,0.00,WeatherDisplay:10.37,2013-09-04 05:57:00,
2013-09-04 01:02:00,54.3,50.2,29.03,SSE,158,0.0,0.0,86,0.00,CLR,,0.00,WeatherDisplay:10.37,2013-09-04 06:02:00,
2013-09-04 01:07:00,54.1,50.0,29.03,SSE,158,0.0,0.0,86,0.00,CLR,,0.00,WeatherDisplay:10.37,2013-09-04 06:07:00,
2013-09-04 01:12:00,54.0,49.9,29.03,SSE,158,0.0,0.0,86,0.00,CLR,,0.00,WeatherDisplay:10.37,2013-09-04 06:12:00,
2013-09-04 01:17:00,54.0,50.2,29.03,SSE,158,0.0,0.0,87,0.00,CLR,,0.00,WeatherDisplay:10.37,2013-09-04 06:17:00,
2013-09-04 01:22:00,54.0,50.2,29.03,SSE,158,0.0,0.0,87,0.00,CLR,,0.00,WeatherDisplay:10.37,2013-09-04 06:22:00,
2013-09-04 01:27:00,53.8,50.0,29.03,SSE,158,0.0,0.0,87,0.00,CLR,,0.00,WeatherDisplay:10.37,2013-09-04 06:27:00,
2013-09-04 01:32:00,53.6,49.8,29.03,SSE,158,0.0,0.0,87,0.00,CLR,,0.00,WeatherDisplay:10.37,2013-09-04 06:32:00,
2013-09-04 01:37:00,53.4,49.6,29.03,SSE,158,0.0,0.0,87,0.00,CLR,,0.00,WeatherDisplay:10.37,2013-09-04 06:37:00,
2013-09-04 01:42:00,53.4,50.0,29.03,SSE,158,0.0,0.0,88,0.00,CLR,,0.00,WeatherDisplay:10.37,2013-09-04 06:42:00,
2013-09-04 01:47:00,53.2,49.8,29.03,SSE,158,0.0,0.0,88,0.00,CLR,,0.00,WeatherDisplay:10.37,2013-09-04 06:47:00,
2013-09-04 01:52:00,53.2,49.8,29.03,SSE,158,0.0,0.0,88,0.00,CLR,,0.00,WeatherDisplay:10.37,2013-09-04 06:52:00,
2013-09-04 01:57:00,53.1,49.9,29.03,SSE,158,0.0,0.0,89,0.00,CLR,,0.00,WeatherDisplay:10.37,2013-09-04 06:57:00,
2013-09-04 02:02:00,53.1,49.9,29.03,SSE,158,0.0,0.0,89,0.00,CLR,,0.00,WeatherDisplay:10.37,2013-09-04 07:02:00,
2013-09-04 02:07:00,52.9,49.4,29.03,SSE,158,0.0,0.0,88,0.00,CLR,,0.00,WeatherDisplay:10.37,2013-09-04 07:07:00,
2013-09-04 02:12:00,52.9,49.7,29.00,SSE,158,0.0,0.0,89,0.00,CLR,,0.00,WeatherDisplay:10.37,2013-09-04 07:12:00,
2013-09-04 02:17:00,52.9,50.0,29.00,SSE,158,1.1,1.1,90,0.00,CLR,,0.00,WeatherDisplay:10.37,2013-09-04 07:17:00,
2013-09-04 02:22:00,52.9,50.0,29.00,SSE,158,0.0,0.0,90,0.00,CLR,,0.00,WeatherDisplay:10.37,2013-09-04 07:22:00,
2013-09-04 02:27:00,52.9,50.0,29.03,SSE,158,0.0,0.0,90,0.00,CLR,,0.00,WeatherDisplay:10.37,2013-09-04 07:27:00,
2013-09-04 02:32:00,52.9,50.0,29.03,SSE,158,0.0,0.0,90,0.00,CLR,,0.00,WeatherDisplay:10.37,2013-09-04 07:32:00,
2013-09-04 02:37:00,52.7,49.8,29.03,SSE,158,0.0,0.0,90,0.00,CLR,,0.00,WeatherDisplay:10.37,2013-09-04 07:37:00,
2013-09-04 02:42:00,52.7,49.8,29.03,SSE,158,0.0,0.0,90,0.00,CLR,,0.00,WeatherDisplay:10.37,2013-09-04 07:42:00,
2013-09-04 02:47:00,52.7,49.8,29.03,SSE,158,0.0,0.0,90,0.00,CLR,,0.00,WeatherDisplay:10.37,2013-09-04 07:47:00,
2013-09-04 02:52:00,52.7,50.1,29.03,SSE,158,2.3,2.3,91,0.00,CLR,,0.00,WeatherDisplay:10.37,2013-09-04 07:52:00,
2013-09-04 02:57:00,52.7,50.1,29.03,SSE,158,0.0,0.0,91,0.00,CLR,,0.00,WeatherDisplay:10.37,2013-09-04 07:57:00,
2013-09-04 03:02:00,52.5,50.0,29.03,SSE,158,0.0,0.0,91,0.00,CLR,,0.00,WeatherDisplay:10.37,2013-09-04 08:02:00,
2013-09-04 03:07:00,52.5,50.0,29.03,SSE,158,0.0,0.0,91,0.00,CLR,,0.00,WeatherDisplay:10.37,2013-09-04 08:07:00,
2013-09-04 03:12:00,52.5,50.0,29.03,SSE,158,0.0,0.0,91,0.00,CLR,,0.00,WeatherDisplay:10.37,2013-09-04 08:12:00,
2013-09-04 03:17:00,52.5,50.0,29.03,SSE,158,0.0,0.0,91,0.00,CLR,,0.00,WeatherDisplay:10.37,2013-09-04 08:17:00,
2013-09-04 03:22:00,52.5,50.0,29.03,SSE,158,0.0,0.0,91,0.00,CLR,,0.00,WeatherDisplay:10.37,2013-09-04 08:22:00,
2013-09-04 03:27:00,52.5,50.0,29.03,SSE,158,0.0,0.0,91,0.00,CLR,,0.00,WeatherDisplay:10.37,2013-09-04 08:27:00,
2013-09-04 03:32:00,52.5,50.0,29.03,SSE,158,0.9,1.1,91,0.00,CLR,,0.00,WeatherDisplay:10.37,2013-09-04 08:32:00,
2013-09-04 03:38:00,52.5,50.3,29.03,SSE,158,1.1,0.0,92,0.00,CLR,,0.00,WeatherDisplay:10.37,2013-09-04 08:38:00,
2013-09-04 03:43:00,52.5,50.3,29.03,SSE,158,1.1,1.1,92,0.00,CLR,,0.00,WeatherDisplay:10.37,2013-09-04 08:43:00,
2013-09-04 03:48:00,52.7,50.4,29.03,SSE,158,0.9,0.0,92,0.00,CLR,,0.00,WeatherDisplay:10.37,2013-09-04 08:48:00,
2013-09-04 03:53:00,52.7,50.4,29.03,SSE,158,2.0,2.0,92,0.00,CLR,,0.00,WeatherDisplay:10.37,2013-09-04 08:53:00,
2013-09-04 03:58:00,52.7,50.4,29.03,SSE,158,1.1,0.0,92,0.00,CLR,,0.00,WeatherDisplay:10.37,2013-09-04 08:58:00,
2013-09-04 04:03:00,52.7,50.4,29.03,SSE,158,0.0,0.0,92,0.00,CLR,,0.00,WeatherDisplay:10.37,2013-09-04 09:03:00,
2013-09-04 04:08:00,52.7,50.4,29.03,SSE,158,0.0,0.0,92,0.00,CLR,,0.00,WeatherDisplay:10.37,2013-09-04 09:08:00,
2013-09-04 04:13:00,52.7,50.4,29.03,SSE,158,0.0,0.0,92,0.00,CLR,,0.00,WeatherDisplay:10.37,2013-09-04 09:13:00,
2013-09-04 04:18:00,52.7,50.4,29.03,SSE,158,0.0,0.0,92,0.00,CLR,,0.00,WeatherDisplay:10.37,2013-09-04 09:18:00,
2013-09-04 04:23:00,52.7,50.4,29.03,SSE,158,1.1,0.0,92,0.00,CLR,,0.00,WeatherDisplay:10.37,2013-09-04 09:23:00,
2013-09-04 04:28:00,52.7,50.7,29.03,SSE,158,1.1,0.0,93,0.00,CLR,,0.00,WeatherDisplay:10.37,2013-09-04 09:28:00,
2013-09-04 04:33:00,52.7,50.7,29.03,SSE,158,0.9,0.0,93,0.00,CLR,,0.00,WeatherDisplay:10.37,2013-09-04 09:33:00,
2013-09-04 04:38:00,52.9,50.9,29.03,SSE,158,0.0,0.0,93,0.00,CLR,,0.00,WeatherDisplay:10.37,2013-09-04 09:38:00,
2013-09-04 04:43:00,52.9,50.9,29.06,SSE,158,0.0,0.0,93,0.00,CLR,,0.00,WeatherDisplay:10.37,2013-09-04 09:43:00,
2013-09-04 04:48:00,52.9,50.9,29.06,SSE,158,0.0,0.0,93,0.00,CLR,,0.00,WeatherDisplay:10.37,2013-09-04 09:48:00,
2013-09-04 04:53:00,52.9,50.9,29.06,SSE,158,0.0,0.0,93,0.00,CLR,,0.00,WeatherDisplay:10.37,2013-09-04 09:53:00,
2013-09-04 04:58:00,52.9,50.9,29.06,SSE,158,0.0,0.0,93,0.00,CLR,,0.00,WeatherDisplay:10.37,2013-09-04 09:58:00,
2013-09-04 05:03:00,52.7,50.7,29.06,SSE,158,0.0,0.0,93,0.00,CLR,,0.00,WeatherDisplay:10.37,2013-09-04 10:03:00,
2013-09-04 05:08:00,52.7,50.7,29.06,SSE,158,0.0,0.0,93,0.00,CLR,,0.00,WeatherDisplay:10.37,2013-09-04 10:08:00,
2013-09-04 05:13:00,52.7,50.7,29.09,SSE,158,0.0,0.0,93,0.00,CLR,,0.00,WeatherDisplay:10.37,2013-09-04 10:13:00,
2013-09-04 05:18:00,52.7,50.7,29.09,SSE,158,0.0,0.0,93,0.00,CLR,,0.00,WeatherDisplay:10.37,2013-09-04 10:18:00,
2013-09-04 05:23:00,52.7,50.7,29.09,SSE,158,0.0,0.0,93,0.00,CLR,,0.00,WeatherDisplay:10.37,2013-09-04 10:23:00,
2013-09-04 05:28:00,52.5,50.6,29.09,SSE,158,0.0,0.0,93,0.00,CLR,,0.00,WeatherDisplay:10.37,2013-09-04 10:28:00,
2013-09-04 05:33:00,52.5,50.6,29.09,SSE,158,0.0,0.0,93,0.00,CLR,,0.00,WeatherDisplay:10.37,2013-09-04 10:33:00,
2013-09-04 05:38:00,52.7,50.7,29.09,SSE,158,0.0,0.0,93,0.00,CLR,,0.00,WeatherDisplay:10.37,2013-09-04 10:38:00,
2013-09-04 05:43:00,52.7,50.7,29.09,SSE,158,0.0,0.0,93,0.00,CLR,,0.00,WeatherDisplay:10.37,2013-09-04 10:43:00,
2013-09-04 05:48:00,52.9,51.2,29.09,SSE,158,0.0,0.0,94,0.00,CLR,,0.00,WeatherDisplay:10.37,2013-09-04 10:48:00,
2013-09-04 05:53:00,52.9,51.2,29.09,SSE,158,0.0,0.0,94,0.00,CLR,,0.00,WeatherDisplay:10.37,2013-09-04 10:53:00,
2013-09-04 05:58:00,53.1,51.4,29.09,SSE,158,0.0,0.0,94,0.00,CLR,,0.00,WeatherDisplay:10.37,2013-09-04 10:58:00,
2013-09-04 06:03:00,53.2,51.6,29.09,SSE,158,0.0,0.0,94,0.00,CLR,,0.00,WeatherDisplay:10.37,2013-09-04 11:03:00,
2013-09-04 06:08:00,53.4,51.7,29.09,SSE,158,1.1,0.0,94,0.00,CLR,,0.00,WeatherDisplay:10.37,2013-09-04 11:08:00,
2013-09-04 06:13:00,53.6,51.9,29.09,SSE,158,0.0,0.0,94,0.00,CLR,,0.00,WeatherDisplay:10.37,2013-09-04 11:13:00,
2013-09-04 06:18:00,54.0,52.3,29.09,SSE,158,0.0,0.0,94,0.00,CLR,,0.00,WeatherDisplay:10.37,2013-09-04 11:18:00,
2013-09-04 06:23:00,54.1,52.5,29.09,SSE,158,0.0,0.0,94,0.00,CLR,,0.00,WeatherDisplay:10.37,2013-09-04 11:23:00,
2013-09-04 06:28:00,54.1,52.5,29.09,SSE,158,0.0,0.0,94,0.00,CLR,,0.00,WeatherDisplay:10.37,2013-09-04 11:28:00,
2013-09-04 06:33:00,54.3,52.6,29.09,SSE,158,1.4,0.0,94,0.00,CLR,,0.00,WeatherDisplay:10.37,2013-09-04 11:33:00,
2013-09-04 06:38:00,54.5,52.8,29.09,SSE,158,0.0,0.0,94,0.00,CLR,,0.00,WeatherDisplay:10.37,2013-09-04 11:38:00,
2013-09-04 06:43:00,54.7,53.0,29.09,SSE,158,2.3,2.3,94,0.00,CLR,,0.00,WeatherDisplay:10.37,2013-09-04 11:43:00,
2013-09-04 06:48:00,54.9,53.2,29.09,SSE,158,0.0,0.0,94,0.00,CLR,,0.00,WeatherDisplay:10.37,2013-09-04 11:48:00,
2013-09-04 06:53:00,55.0,53.3,29.09,SSE,158,2.3,2.3,94,0.00,CLR,,0.00,WeatherDisplay:10.37,2013-09-04 11:53:00,
2013-09-04 06:58:00,55.2,53.5,29.06,SSE,158,0.0,0.0,94,0.00,CLR,,0.00,WeatherDisplay:10.37,2013-09-04 11:58:00,
2013-09-04 07:03:00,55.4,53.7,29.06,SSE,158,2.3,2.3,94,0.00,CLR,,0.00,WeatherDisplay:10.37,2013-09-04 12:03:00,
2013-09-04 07:08:00,55.4,53.7,29.06,SSE,158,0.0,0.0,94,0.00,CLR,,0.00,WeatherDisplay:10.37,2013-09-04 12:08:00,
2013-09-04 07:13:00,55.6,53.9,29.06,SSE,158,0.0,0.0,94,0.00,CLR,,0.00,WeatherDisplay:10.37,2013-09-04 12:13:00,
2013-09-04 07:18:00,55.6,53.9,29.06,SSE,158,0.0,0.0,94,0.00,CLR,,0.00,WeatherDisplay:10.37,2013-09-04 12:18:00,
2013-09-04 07:23:00,55.8,54.1,29.06,SSE,158,2.3,2.3,94,0.00,CLR,,0.00,WeatherDisplay:10.37,2013-09-04 12:23:00,
2013-09-04 07:28:00,55.9,54.2,29.09,SSE,158,2.3,2.3,94,0.00,CLR,,0.00,WeatherDisplay:10.37,2013-09-04 12:28:00,
2013-09-04 07:33:00,56.1,54.4,29.09,SSE,158,1.6,1.6,94,0.00,CLR,,0.00,WeatherDisplay:10.37,2013-09-04 12:33:00,
2013-09-04 07:38:00,56.3,54.6,29.09,SSE,158,1.1,1.1,94,0.00,CLR,,0.00,WeatherDisplay:10.37,2013-09-04 12:38:00,
2013-09-04 07:43:00,56.5,54.8,29.06,SSE,158,0.0,0.0,94,0.00,CLR,,0.00,WeatherDisplay:10.37,2013-09-04 12:43:00,
2013-09-04 07:48:00,56.8,55.4,29.06,SW,225,1.1,0.0,95,0.00,CLR,,0.00,WeatherDisplay:10.37,2013-09-04 12:48:00,
2013-09-04 07:53:00,57.0,55.6,29.06,SW,225,3.5,3.5,95,0.00,CLR,,0.00,WeatherDisplay:10.37,2013-09-04 12:53:00,
2013-09-04 07:58:00,57.7,56.3,29.09,SW,225,4.0,4.0,95,0.00,CLR,,0.00,WeatherDisplay:10.37,2013-09-04 12:58:00,
2013-09-04 08:03:00,58.3,56.9,29.09,SSW,202,3.5,3.5,95,0.00,CLR,,0.00,WeatherDisplay:10.37,2013-09-04 13:03:00,
2013-09-04 08:08:00,58.8,57.4,29.09,SW,225,5.8,5.8,95,0.00,CLR,,0.00,WeatherDisplay:10.37,2013-09-04 13:08:00,
2013-09-04 08:13:00,59.5,57.8,29.09,SSW,202,5.8,5.8,94,0.00,CLR,,0.00,WeatherDisplay:10.37,2013-09-04 13:13:00,
2013-09-04 08:18:00,60.1,58.3,29.09,SSW,202,4.6,4.6,94,0.00,CLR,,0.00,WeatherDisplay:10.37,2013-09-04 13:18:00,
2013-09-04 08:23:00,60.4,58.7,29.09,SSW,202,2.4,2.4,94,0.00,CLR,,0.00,WeatherDisplay:10.37,2013-09-04 13:23:00,
2013-09-04 08:28:00,61.0,58.9,29.09,SW,225,4.6,4.6,93,0.00,CLR,,0.00,WeatherDisplay:10.37,2013-09-04 13:28:00,
2013-09-04 08:33:00,61.3,59.3,29.09,SW,225,2.4,2.4,93,0.00,CLR,,0.00,WeatherDisplay:10.37,2013-09-04 13:33:00,
2013-09-04 08:38:00,61.5,59.2,29.09,WSW,248,3.5,3.5,92,0.00,CLR,,0.00,WeatherDisplay:10.37,2013-09-04 13:38:00,
2013-09-04 08:43:00,62.1,59.7,29.06,SW,225,6.9,6.9,92,0.00,CLR,,0.00,WeatherDisplay:10.37,2013-09-04 13:43:00,
2013-09-04 08:48:00,62.4,59.8,29.06,SSW,202,4.6,4.6,91,0.00,CLR,,0.00,WeatherDisplay:10.37,2013-09-04 13:48:00,
2013-09-04 08:53:00,63.0,60.3,29.06,SSW,202,3.6,3.6,91,0.00,CLR,,0.00,WeatherDisplay:10.37,2013-09-04 13:53:00,
2013-09-04 08:58:00,63.3,60.3,29.09,SW,225,4.6,4.6,90,0.00,CLR,,0.00,WeatherDisplay:10.37,2013-09-04 13:58:00,
2013-09-04 09:03:00,63.7,60.7,29.09,SSW,202,3.5,3.5,90,0.00,CLR,,0.00,WeatherDisplay:10.37,2013-09-04 14:03:00,
2013-09-04 09:08:00,64.0,61.0,29.09,SW,225,2.3,2.3,90,0.00,CLR,,0.00,WeatherDisplay:10.37,2013-09-04 14:08:00,
2013-09-04 09:13:00,64.4,61.1,29.09,SW,225,2.3,2.3,89,0.00,CLR,,0.00,WeatherDisplay:10.37,2013-09-04 14:13:00,
2013-09-04 09:18:00,64.8,61.1,29.09,SW,225,3.5,3.5,88,0.00,CLR,,0.00,WeatherDisplay:10.37,2013-09-04 14:18:00,
2013-09-04 09:23:00,64.9,61.3,29.09,SSW,202,2.3,2.3,88,0.00,CLR,,0.00,WeatherDisplay:10.37,2013-09-04 14:23:00,
2013-09-04 09:28:00,65.3,61.3,29.09,NNE,22,2.0,0.0,87,0.00,CLR,,0.00,WeatherDisplay:10.37,2013-09-04 14:28:00,
2013-09-04 09:33:00,65.7,61.7,29.09,SW,225,2.3,2.3,87,0.00,CLR,,0.00,WeatherDisplay:10.37,2013-09-04 14:33:00,
2013-09-04 09:38:00,66.0,62.0,29.09,SSW,202,2.3,2.3,87,0.00,CLR,,0.00,WeatherDisplay:10.37,2013-09-04 14:38:00,
2013-09-04 09:43:00,66.4,62.1,29.09,SW,225,2.3,2.3,86,0.00,CLR,,0.00,WeatherDisplay:10.37,2013-09-04 14:43:00,
2013-09-04 09:48:00,66.9,62.3,29.09,SW,225,1.1,0.0,85,0.00,CLR,,0.00,WeatherDisplay:10.37,2013-09-04 14:48:00,
2013-09-04 09:53:00,67.1,62.1,29.09,SSW,202,1.1,1.1,84,0.00,CLR,,0.00,WeatherDisplay:10.37,2013-09-04 14:53:00,
2013-09-04 09:58:00,67.5,62.1,29.09,SSW,202,2.3,2.3,83,0.00,CLR,,0.00,WeatherDisplay:10.37,2013-09-04 14:58:00,
2013-09-04 10:03:00,67.6,62.3,29.09,ESE,112,2.3,2.3,83,0.00,CLR,,0.00,WeatherDisplay:10.37,2013-09-04 15:03:00,
2013-09-04 10:08:00,68.0,62.3,29.09,SW,225,4.6,4.6,82,0.00,CLR,,0.00,WeatherDisplay:10.37,2013-09-04 15:08:00,
2013-09-04 10:13:00,68.4,62.3,29.09,North,0,2.3,2.3,81,0.00,CLR,,0.00,WeatherDisplay:10.37,2013-09-04 15:13:00,
2013-09-04 10:18:00,68.7,62.7,29.09,ENE,68,3.5,3.5,81,0.00,CLR,,0.00,WeatherDisplay:10.37,2013-09-04 15:18:00,
2013-09-04 10:23:00,69.1,62.6,29.09,NNE,22,1.1,1.1,80,0.00,CLR,,0.00,WeatherDisplay:10.37,2013-09-04 15:23:00,
2013-09-04 10:28:00,69.4,63.0,29.12,ENE,68,3.6,3.6,80,0.00,CLR,,0.00,WeatherDisplay:10.37,2013-09-04 15:28:00,
2013-09-04 10:33:00,70.0,63.2,29.12,East,90,3.3,3.3,79,0.00,CLR,,0.00,WeatherDisplay:10.37,2013-09-04 15:33:00,
2013-09-04 10:38:00,70.3,63.5,29.12,ENE,68,3.5,3.5,79,0.00,CLR,,0.00,WeatherDisplay:10.37,2013-09-04 15:38:00,
2013-09-04 10:43:00,70.9,63.7,29.12,NNE,22,2.3,2.3,78,0.00,CLR,,0.00,WeatherDisplay:10.37,2013-09-04 15:43:00,
2013-09-04 10:49:00,71.6,63.6,29.12,ENE,68,4.6,4.6,76,0.00,CLR,,0.00,WeatherDisplay:10.37,2013-09-04 15:49:00,
2013-09-04 10:54:00,72.1,64.2,29.12,ENE,68,3.5,3.5,76,0.00,CLR,,0.00,WeatherDisplay:10.37,2013-09-04 15:54:00,
2013-09-04 10:59:00,72.9,64.5,29.12,WNW,292,2.3,0.0,75,0.00,CLR,,0.00,WeatherDisplay:10.37,2013-09-04 15:59:00,
2013-09-04 11:04:00,73.4,64.2,29.12,NNE,22,2.9,2.9,73,0.00,CLR,,0.00,WeatherDisplay:10.37,2013-09-04 16:04:00,
2013-09-04 11:09:00,74.1,64.5,29.12,ENE,68,3.6,3.6,72,0.00,CLR,,0.00,WeatherDisplay:10.37,2013-09-04 16:09:00,
2013-09-04 11:14:00,74.7,64.6,29.12,ENE,68,3.6,3.6,71,0.00,CLR,,0.00,WeatherDisplay:10.37,2013-09-04 16:14:00,
2013-09-04 11:19:00,75.0,64.6,29.12,SSW,202,2.3,2.3,70,0.00,CLR,,0.00,WeatherDisplay:10.37,2013-09-04 16:19:00,
2013-09-04 11:24:00,75.4,64.5,29.12,SW,225,2.3,2.3,69,0.00,CLR,,0.00,WeatherDisplay:10.37,2013-09-04 16:24:00,
2013-09-04 11:29:00,75.9,64.6,29.12,NNE,22,1.1,1.1,68,0.00,CLR,,0.00,WeatherDisplay:10.37,2013-09-04 16:29:00,
2013-09-04 11:34:00,76.5,64.7,29.12,NNE,22,2.3,2.3,67,0.00,CLR,,0.00,WeatherDisplay:10.37,2013-09-04 16:34:00,
2013-09-04 11:39:00,77.0,65.6,29.12,SW,225,2.3,2.3,68,0.00,CLR,,0.00,WeatherDisplay:10.37,2013-09-04 16:39:00,
2013-09-04 11:44:00,77.4,65.5,29.12,SW,225,5.8,5.8,67,0.00,CLR,,0.00,WeatherDisplay:10.37,2013-09-04 16:44:00,
2013-09-04 11:49:00,77.5,65.3,29.12,SW,225,4.6,4.6,66,0.00,CLR,,0.00,WeatherDisplay:10.37,2013-09-04 16:49:00,
2013-09-04 11:54:00,77.7,65.5,29.12,SW,225,4.9,4.9,66,0.00,CLR,,0.00,WeatherDisplay:10.37,2013-09-04 16:54:00,
2013-09-04 11:59:00,78.1,65.8,29.12,SSW,202,4.7,4.7,66,0.00,CLR,,0.00,WeatherDisplay:10.37,2013-09-04 16:59:00,
2013-09-04 12:04:00,78.4,66.1,29.12,SSW,202,3.5,3.5,66,0.00,CLR,,0.00,WeatherDisplay:10.37,2013-09-04 17:04:00,
2013-09-04 12:09:00,78.8,66.0,29.12,SSW,202,2.3,2.3,65,0.00,CLR,,0.00,WeatherDisplay:10.37,2013-09-04 17:09:00,
2013-09-04 12:14:00,79.0,65.8,29.12,SW,225,2.3,2.3,64,0.00,CLR,,0.00,WeatherDisplay:10.37,2013-09-04 17:14:00,
2013-09-04 12:19:00,79.2,65.9,29.12,SE,135,3.6,3.6,64,0.00,CLR,,0.00,WeatherDisplay:10.37,2013-09-04 17:19:00,
2013-09-04 12:24:00,79.0,65.3,29.12,West,270,2.3,2.3,63,0.00,CLR,,0.00,WeatherDisplay:10.37,2013-09-04 17:24:00,
2013-09-04 12:29:00,78.8,65.1,29.12,SW,225,2.3,2.3,63,0.00,CLR,,0.00,WeatherDisplay:10.37,2013-09-04 17:29:00,
2013-09-04 12:34:00,78.6,65.4,29.12,SW,225,5.4,5.4,64,0.00,CLR,,0.00,WeatherDisplay:10.37,2013-09-04 17:34:00,
2013-09-04 12:39:00,78.6,65.0,29.12,SW,225,6.9,6.9,63,0.00,CLR,,0.00,WeatherDisplay:10.37,2013-09-04 17:39:00,
2013-09-04 12:44:00,78.8,65.1,29.12,SW,225,3.8,3.8,63,0.00,CLR,,0.00,WeatherDisplay:10.37,2013-09-04 17:44:00,
2013-09-04 12:49:00,79.0,65.3,29.12,SW,225,4.6,4.6,63,0.00,CLR,,0.00,WeatherDisplay:10.37,2013-09-04 17:49:00,
2013-09-04 12:54:00,79.0,65.3,29.12,SW,225,2.3,2.3,63,0.00,CLR,,0.00,WeatherDisplay:10.37,2013-09-04 17:54:00,
2013-09-04 12:59:00,79.2,65.5,29.12,SE,135,2.4,2.4,63,0.00,CLR,,0.00,WeatherDisplay:10.37,2013-09-04 17:59:00,
2013-09-04 13:04:00,79.2,65.5,29.12,NE,45,2.3,2.3,63,0.00,CLR,,0.00,WeatherDisplay:10.37,2013-09-04 18:04:00,
2013-09-04 13:09:00,79.3,65.6,29.12,NE,45,2.6,2.6,63,0.00,CLR,,0.00,WeatherDisplay:10.37,2013-09-04 18:09:00,
2013-09-04 13:14:00,79.2,65.0,29.12,NE,45,3.5,3.5,62,0.00,CLR,,0.00,WeatherDisplay:10.37,2013-09-04 18:14:00,
2013-09-04 13:19:00,79.2,65.0,29.12,ENE,68,4.6,4.6,62,0.00,CLR,,0.00,WeatherDisplay:10.37,2013-09-04 18:19:00,
2013-09-04 13:24:00,79.2,65.0,29.12,ENE,68,3.5,3.5,62,0.00,CLR,,0.00,WeatherDisplay:10.37,2013-09-04 18:24:00,
2013-09-04 13:29:00,79.3,65.6,29.15,NE,45,2.4,2.4,63,0.00,CLR,,0.00,WeatherDisplay:10.37,2013-09-04 18:29:00,
2013-09-04 13:34:00,79.5,65.4,29.15,North,0,3.5,3.8,62,0.00,CLR,,0.00,WeatherDisplay:10.37,2013-09-04 18:34:00,
2013-09-04 13:39:00,79.3,65.2,29.15,NNW,338,3.5,3.5,62,0.00,CLR,,0.00,WeatherDisplay:10.37,2013-09-04 18:39:00,
2013-09-04 13:44:00,79.2,65.0,29.15,ENE,68,4.9,4.9,62,0.00,CLR,,0.00,WeatherDisplay:10.37,2013-09-04 18:44:00,
2013-09-04 13:49:00,79.2,65.0,29.15,ENE,68,4.6,4.6,62,0.00,CLR,,0.00,WeatherDisplay:10.37,2013-09-04 18:49:00,
2013-09-04 13:54:00,79.5,65.4,29.15,NNE,22,2.3,2.3,62,0.00,CLR,,0.00,WeatherDisplay:10.37,2013-09-04 18:54:00,
2013-09-04 13:59:00,80.1,65.9,29.15,NNE,22,2.3,2.3,62,0.00,CLR,,0.00,WeatherDisplay:10.37,2013-09-04 18:59:00,
2013-09-04 14:04:00,80.6,66.4,29.15,ESE,112,3.5,3.5,62,0.00,CLR,,0.00,WeatherDisplay:10.37,2013-09-04 19:04:00,
2013-09-04 14:09:00,81.3,66.6,29.15,West,270,2.3,2.3,61,0.00,CLR,,0.00,WeatherDisplay:10.37,2013-09-04 19:09:00,
2013-09-04 14:14:00,81.5,66.8,29.12,SSW,202,2.3,2.3,61,0.00,CLR,,0.00,WeatherDisplay:10.37,2013-09-04 19:14:00,
2013-09-04 14:19:00,81.9,67.1,29.12,WNW,292,2.3,2.3,61,0.00,CLR,,0.00,WeatherDisplay:10.37,2013-09-04 19:19:00,
2013-09-04 14:24:00,82.6,66.8,29.12,ENE,68,2.9,2.9,59,0.00,CLR,,0.00,WeatherDisplay:10.37,2013-09-04 19:24:00,
2013-09-04 14:29:00,82.6,66.3,29.12,East,90,3.5,3.5,58,0.00,CLR,,0.00,WeatherDisplay:10.37,2013-09-04 19:29:00,
2013-09-04 14:34:00,83.1,66.8,29.12,SW,225,3.5,3.5,58,0.00,CLR,,0.00,WeatherDisplay:10.37,2013-09-04 19:34:00,
2013-09-04 14:39:00,83.5,66.6,29.12,West,270,2.3,2.3,57,0.00,CLR,,0.00,WeatherDisplay:10.37,2013-09-04 19:39:00,
2013-09-04 14:44:00,83.8,66.5,29.12,NNW,338,2.3,2.3,56,0.00,CLR,,0.00,WeatherDisplay:10.37,2013-09-04 19:44:00,
2013-09-04 14:49:00,83.8,65.9,29.12,NNW,338,2.4,2.4,55,0.00,CLR,,0.00,WeatherDisplay:10.37,2013-09-04 19:49:00,
2013-09-04 14:54:00,84.0,65.6,29.12,North,0,1.1,1.1,54,0.00,CLR,,0.00,WeatherDisplay:10.37,2013-09-04 19:54:00,
2013-09-04 14:59:00,84.4,64.8,29.12,ESE,112,3.5,3.5,52,0.00,CLR,,0.00,WeatherDisplay:10.37,2013-09-04 19:59:00,
2013-09-04 15:04:00,84.2,64.7,29.12,SE,135,2.3,2.3,52,0.00,CLR,,0.00,WeatherDisplay:10.37,2013-09-04 20:04:00,
2013-09-04 15:09:00,84.2,64.1,29.12,NNW,338,2.3,2.3,51,0.00,CLR,,0.00,WeatherDisplay:10.37,2013-09-04 20:09:00,
2013-09-04 15:14:00,84.0,63.9,29.12,NNW,338,1.1,0.0,51,0.00,CLR,,0.00,WeatherDisplay:10.37,2013-09-04 20:14:00,
2013-09-04 15:19:00,83.7,63.6,29.12,East,90,4.6,4.6,51,0.00,CLR,,0.00,WeatherDisplay:10.37,2013-09-04 20:19:00,
2013-09-04 15:24:00,83.7,64.2,29.12,NNE,22,2.3,2.3,52,0.00,CLR,,0.00,WeatherDisplay:10.37,2013-09-04 20:24:00,
2013-09-04 15:29:00,83.3,63.8,29.15,NNW,338,3.5,3.5,52,0.00,CLR,,0.00,WeatherDisplay:10.37,2013-09-04 20:29:00,
2013-09-04 15:34:00,82.9,64.0,29.15,NNE,22,5.8,5.8,53,0.00,CLR,,0.00,WeatherDisplay:10.37,2013-09-04 20:34:00,
2013-09-04 15:39:00,82.4,64.1,29.15,ENE,68,3.5,3.5,54,0.00,CLR,,0.00,WeatherDisplay:10.37,2013-09-04 20:39:00,
2013-09-04 15:44:00,82.4,63.5,29.12,NE,45,4.6,4.6,53,0.00,CLR,,0.00,WeatherDisplay:10.37,2013-09-04 20:44:00,
2013-09-04 15:49:00,82.2,63.9,29.12,East,90,4.6,4.6,54,0.00,CLR,,0.00,WeatherDisplay:10.37,2013-09-04 20:49:00,
2013-09-04 15:54:00,81.9,64.1,29.12,NNE,22,2.6,2.6,55,0.00,CLR,,0.00,WeatherDisplay:10.37,2013-09-04 20:54:00,
2013-09-04 15:59:00,81.9,63.6,29.15,North,0,5.8,5.8,54,0.00,CLR,,0.00,WeatherDisplay:10.37,2013-09-04 20:59:00,
2013-09-04 16:04:00,81.3,63.1,29.15,ENE,68,4.6,4.6,54,0.00,CLR,,0.00,WeatherDisplay:10.37,2013-09-04 21:04:00,
2013-09-04 16:09:00,81.0,63.3,29.15,WNW,292,2.3,2.3,55,0.00,CLR,,0.00,WeatherDisplay:10.37,2013-09-04 21:09:00,
2013-09-04 16:14:00,81.0,63.3,29.12,WNW,292,2.3,2.4,55,0.00,CLR,,0.00,WeatherDisplay:10.37,2013-09-04 21:14:00,
2013-09-04 16:19:00,81.0,63.8,29.12,NNE,22,4.6,4.6,56,0.00,CLR,,0.00,WeatherDisplay:10.37,2013-09-04 21:19:00,
2013-09-04 16:24:00,80.8,63.1,29.12,ENE,68,3.5,3.5,55,0.00,CLR,,0.00,WeatherDisplay:10.37,2013-09-04 21:24:00,
2013-09-04 16:29:00,80.6,62.9,29.12,NNE,22,5.8,5.8,55,0.00,CLR,,0.00,WeatherDisplay:10.37,2013-09-04 21:29:00,
2013-09-04 16:34:00,80.2,62.6,29.12,NE,45,5.8,5.8,55,0.00,CLR,,0.00,WeatherDisplay:10.37,2013-09-04 21:34:00,
2013-09-04 16:39:00,80.1,62.4,29.12,ENE,68,3.5,3.5,55,0.00,CLR,,0.00,WeatherDisplay:10.37,2013-09-04 21:39:00,
2013-09-04 16:44:00,80.1,61.9,29.15,ENE,68,2.3,2.3,54,0.00,CLR,,0.00,WeatherDisplay:10.37,2013-09-04 21:44:00,
2013-09-04 16:49:00,79.9,62.3,29.15,ENE,68,3.6,3.6,55,0.00,CLR,,0.00,WeatherDisplay:10.37,2013-09-04 21:49:00,
2013-09-04 16:54:00,79.7,61.6,29.15,North,0,2.3,2.3,54,0.00,CLR,,0.00,WeatherDisplay:10.37,2013-09-04 21:54:00,
2013-09-04 16:59:00,79.7,62.1,29.15,ENE,68,3.5,3.5,55,0.00,CLR,,0.00,WeatherDisplay:10.37,2013-09-04 21:59:00,
2013-09-04 17:04:00,79.7,62.1,29.15,NNE,22,1.1,0.0,55,0.00,CLR,,0.00,WeatherDisplay:10.37,2013-09-04 22:04:00,
2013-09-04 17:09:00,79.5,61.9,29.15,SSE,158,1.1,1.1,55,0.00,CLR,,0.00,WeatherDisplay:10.37,2013-09-04 22:09:00,
2013-09-04 17:14:00,79.5,61.9,29.12,NNW,338,3.5,3.5,55,0.00,CLR,,0.00,WeatherDisplay:10.37,2013-09-04 22:14:00,
2013-09-04 17:19:00,79.5,62.4,29.12,NNW,338,2.3,2.3,56,0.00,CLR,,0.00,WeatherDisplay:10.37,2013-09-04 22:19:00,
2013-09-04 17:24:00,79.5,62.4,29.12,NNW,338,2.3,2.3,56,0.00,CLR,,0.00,WeatherDisplay:10.37,2013-09-04 22:24:00,
2013-09-04 17:29:00,79.5,62.4,29.15,NNW,338,2.3,2.3,56,0.00,CLR,,0.00,WeatherDisplay:10.37,2013-09-04 22:29:00,
2013-09-04 17:34:00,79.5,62.4,29.15,NNW,338,1.6,0.0,56,0.00,CLR,,0.00,WeatherDisplay:10.37,2013-09-04 22:34:00,
2013-09-04 17:39:00,79.5,62.4,29.15,NNE,22,1.1,1.1,56,0.00,CLR,,0.00,WeatherDisplay:10.37,2013-09-04 22:39:00,
2013-09-04 17:44:00,79.3,62.3,29.15,NNE,22,3.5,3.5,56,0.00,CLR,,0.00,WeatherDisplay:10.37,2013-09-04 22:44:00,
2013-09-04 17:49:00,79.2,62.6,29.15,NNW,338,1.6,1.6,57,0.00,CLR,,0.00,WeatherDisplay:10.37,2013-09-04 22:49:00,
2013-09-04 17:54:00,79.0,62.4,29.15,NNE,22,1.4,1.4,57,0.00,CLR,,0.00,WeatherDisplay:10.37,2013-09-04 22:54:00,
2013-09-04 18:00:00,79.0,62.4,29.15,NNE,22,1.1,0.0,57,0.00,CLR,,0.00,WeatherDisplay:10.37,2013-09-04 23:00:00,
2013-09-04 18:05:00,78.8,62.3,29.15,NNE,22,0.0,0.0,57,0.00,CLR,,0.00,WeatherDisplay:10.37,2013-09-04 23:05:00,
2013-09-04 18:10:00,78.6,62.6,29.15,NNW,338,1.1,1.1,58,0.00,CLR,,0.00,WeatherDisplay:10.37,2013-09-04 23:10:00,
2013-09-04 18:15:00,78.4,61.9,29.15,NNW,338,1.1,1.1,57,0.00,CLR,,0.00,WeatherDisplay:10.37,2013-09-04 23:15:00,
2013-09-04 18:20:00,78.1,61.6,29.15,NNW,338,1.1,1.1,57,0.00,CLR,,0.00,WeatherDisplay:10.37,2013-09-04 23:20:00,
2013-09-04 18:25:00,77.9,61.4,29.15,NNW,338,1.1,0.0,57,0.00,CLR,,0.00,WeatherDisplay:10.37,2013-09-04 23:25:00,
2013-09-04 18:30:00,77.7,61.3,29.15,NNW,338,0.0,0.0,57,0.00,CLR,,0.00,WeatherDisplay:10.37,2013-09-04 23:30:00,
2013-09-04 18:35:00,77.4,61.4,29.15,North,0,0.0,0.0,58,0.00,CLR,,0.00,WeatherDisplay:10.37,2013-09-04 23:35:00,
2013-09-04 18:40:00,77.2,61.3,29.15,ENE,68,2.3,0.0,58,0.00,CLR,,0.00,WeatherDisplay:10.37,2013-09-04 23:40:00,
2013-09-04 18:45:00,76.8,60.9,29.15,NE,45,2.3,2.3,58,0.00,CLR,,0.00,WeatherDisplay:10.37,2013-09-04 23:45:00,
2013-09-04 18:50:00,76.6,60.8,29.15,ENE,68,2.3,2.3,58,0.00,CLR,,0.00,WeatherDisplay:10.37,2013-09-04 23:50:00,
2013-09-04 18:55:00,76.5,60.6,29.15,ENE,68,1.1,0.0,58,0.00,CLR,,0.00,WeatherDisplay:10.37,2013-09-04 23:55:00,
2013-09-04 19:00:00,76.1,60.2,29.15,ENE,68,0.0,0.0,58,0.00,CLR,,0.00,WeatherDisplay:10.37,2013-09-05 00:00:00,
2013-09-04 19:05:00,75.9,60.1,29.15,ENE,68,0.0,0.0,58,0.00,CLR,,0.00,WeatherDisplay:10.37,2013-09-05 00:05:00,
2013-09-04 19:10:00,75.6,60.2,29.15,ENE,68,0.0,0.0,59,0.00,CLR,,0.00,WeatherDisplay:10.37,2013-09-05 00:10:00,
2013-09-04 19:15:00,75.2,60.4,29.15,ENE,68,1.6,0.0,60,0.00,CLR,,0.00,WeatherDisplay:10.37,2013-09-05 00:15:00,
2013-09-04 19:20:00,74.8,60.5,29.15,NE,45,4.6,4.6,61,0.00,CLR,,0.00,WeatherDisplay:10.37,2013-09-05 00:20:00,
2013-09-04 19:25:00,74.7,60.3,29.15,East,90,4.6,4.6,61,0.00,CLR,,0.00,WeatherDisplay:10.37,2013-09-05 00:25:00,
2013-09-04 19:30:00,73.9,59.6,29.15,NE,45,5.8,5.8,61,0.00,CLR,,0.00,WeatherDisplay:10.37,2013-09-05 00:30:00,
2013-09-04 19:35:00,73.4,59.1,29.15,ENE,68,5.8,5.8,61,0.00,CLR,,0.00,WeatherDisplay:10.37,2013-09-05 00:35:00,
2013-09-04 19:40:00,73.4,59.1,29.15,ENE,68,3.5,3.5,61,0.00,CLR,,0.00,WeatherDisplay:10.37,2013-09-05 00:40:00,
2013-09-04 19:45:00,72.9,58.6,29.12,ENE,68,2.4,2.4,61,0.00,CLR,,0.00,WeatherDisplay:10.37,2013-09-05 00:45:00,
2013-09-04 19:50:00,72.3,58.1,29.12,NE,45,4.6,4.6,61,0.00,CLR,,0.00,WeatherDisplay:10.37,2013-09-05 00:50:00,
2013-09-04 19:55:00,72.1,57.9,29.12,ENE,68,2.3,2.3,61,0.00,CLR,,0.00,WeatherDisplay:10.37,2013-09-05 00:55:00,
2013-09-04 20:00:00,72.1,57.9,29.12,NNE,22,2.3,2.3,61,0.00,CLR,,0.00,WeatherDisplay:10.37,2013-09-05 01:00:00,
2013-09-04 20:05:00,71.2,57.5,29.12,NE,45,3.5,3.5,62,0.00,CLR,,0.00,WeatherDisplay:10.37,2013-09-05 01:05:00,
2013-09-04 20:10:00,71.1,57.4,29.12,NE,45,2.6,2.6,62,0.00,CLR,,0.00,WeatherDisplay:10.37,2013-09-05 01:10:00,
2013-09-04 20:15:00,70.7,57.0,29.12,ENE,68,3.5,3.5,62,0.00,CLR,,0.00,WeatherDisplay:10.37,2013-09-05 01:15:00,
2013-09-04 20:20:00,70.2,56.5,29.12,ENE,68,2.9,2.9,62,0.00,CLR,,0.00,WeatherDisplay:10.37,2013-09-05 01:20:00,
2013-09-04 20:25:00,70.0,56.8,29.12,ENE,68,2.3,2.3,63,0.00,CLR,,0.00,WeatherDisplay:10.37,2013-09-05 01:25:00,
2013-09-04 20:30:00,69.6,56.9,29.15,ENE,68,2.3,2.3,64,0.00,CLR,,0.00,WeatherDisplay:10.37,2013-09-05 01:30:00,
2013-09-04 20:35:00,69.3,56.6,29.15,ENE,68,1.6,1.6,64,0.00,CLR,,0.00,WeatherDisplay:10.37,2013-09-05 01:35:00,
2013-09-04 20:40:00,69.1,56.4,29.15,ENE,68,2.3,2.3,64,0.00,CLR,,0.00,WeatherDisplay:10.37,2013-09-05 01:40:00,
2013-09-04 20:45:00,68.7,56.5,29.15,ENE,68,0.0,0.0,65,0.00,CLR,,0.00,WeatherDisplay:10.37,2013-09-05 01:45:00,
2013-09-04 20:50:00,68.5,56.3,29.15,ENE,68,1.1,1.1,65,0.00,CLR,,0.00,WeatherDisplay:10.37,2013-09-05 01:50:00,
2013-09-04 20:55:00,68.4,56.6,29.15,ENE,68,2.4,2.4,66,0.00,CLR,,0.00,WeatherDisplay:10.37,2013-09-05 01:55:00,
2013-09-04 21:00:00,68.0,56.2,29.15,NE,45,3.5,3.5,66,0.00,CLR,,0.00,WeatherDisplay:10.37,2013-09-05 02:00:00,
2013-09-04 21:05:00,68.0,56.2,29.15,NE,45,2.3,2.3,66,0.00,CLR,,0.00,WeatherDisplay:10.37,2013-09-05 02:05:00,
2013-09-04 21:10:00,68.0,56.2,29.15,ENE,68,2.9,2.9,66,0.00,CLR,,0.00,WeatherDisplay:10.37,2013-09-05 02:10:00,
2013-09-04 21:15:00,68.0,56.2,29.18,NE,45,1.1,0.0,66,0.00,CLR,,0.00,WeatherDisplay:10.37,2013-09-05 02:15:00,
2013-09-04 21:20:00,68.0,56.2,29.18,NNE,22,2.3,2.3,66,0.00,CLR,,0.00,WeatherDisplay:10.37,2013-09-05 02:20:00,
2013-09-04 21:25:00,68.0,56.2,29.18,NNE,22,2.0,2.0,66,0.00,CLR,,0.00,WeatherDisplay:10.37,2013-09-05 02:25:00,
2013-09-04 21:30:00,68.0,56.2,29.18,ENE,68,3.5,3.5,66,0.00,CLR,,0.00,WeatherDisplay:10.37,2013-09-05 02:30:00,
2013-09-04 21:35:00,68.0,56.2,29.18,ENE,68,2.3,2.3,66,0.00,CLR,,0.00,WeatherDisplay:10.37,2013-09-05 02:35:00,
2013-09-04 21:40:00,68.0,56.2,29.18,NNE,22,1.1,1.1,66,0.00,CLR,,0.00,WeatherDisplay:10.37,2013-09-05 02:40:00,
2013-09-04 21:45:00,68.0,56.2,29.18,NE,45,1.1,0.0,66,0.00,CLR,,0.00,WeatherDisplay:10.37,2013-09-05 02:45:00,
2013-09-04 21:50:00,65.3,54.5,29.18,NE,45,2.3,2.3,68,0.00,CLR,,0.00,WeatherDisplay:10.37,2013-09-05 02:50:00,
2013-09-04 21:55:00,65.1,54.3,29.18,NE,45,3.3,3.3,68,0.00,CLR,,0.00,WeatherDisplay:10.37,2013-09-05 02:55:00,
2013-09-04 22:00:00,65.1,54.3,29.20,East,90,3.5,3.5,68,0.00,CLR,,0.00,WeatherDisplay:10.37,2013-09-05 03:00:00,
2013-09-04 22:05:00,65.1,54.3,29.20,ENE,68,3.5,3.5,68,0.00,CLR,,0.00,WeatherDisplay:10.37,2013-09-05 03:05:00,
2013-09-04 22:10:00,65.1,54.3,29.20,ENE,68,3.5,3.5,68,0.00,CLR,,0.00,WeatherDisplay:10.37,2013-09-05 03:10:00,
2013-09-04 22:15:00,65.1,54.3,29.20,ENE,68,3.5,3.5,68,0.00,CLR,,0.00,WeatherDisplay:10.37,2013-09-05 03:15:00,
2013-09-04 22:20:00,65.1,54.3,29.20,ENE,68,5.8,5.8,68,0.00,CLR,,0.00,WeatherDisplay:10.37,2013-09-05 03:20:00,
2013-09-04 22:25:00,63.9,53.9,29.20,NE,45,3.5,3.5,70,0.00,CLR,,0.00,WeatherDisplay:10.37,2013-09-05 03:25:00,
2013-09-04 22:30:00,63.9,53.9,29.20,ENE,68,4.6,4.6,70,0.00,CLR,,0.00,WeatherDisplay:10.37,2013-09-05 03:30:00,
2013-09-04 22:35:00,63.7,53.7,29.20,NE,45,2.9,2.9,70,0.00,CLR,,0.00,WeatherDisplay:10.37,2013-09-05 03:35:00,
2013-09-04 22:40:00,63.7,53.7,29.20,ENE,68,2.3,2.3,70,0.00,CLR,,0.00,WeatherDisplay:10.37,2013-09-05 03:40:00,
2013-09-04 22:45:00,63.7,53.7,29.20,NE,45,2.3,2.4,70,0.00,CLR,,0.00,WeatherDisplay:10.37,2013-09-05 03:45:00,
2013-09-04 22:50:00,63.7,53.7,29.20,NE,45,3.5,3.5,70,0.00,CLR,,0.00,WeatherDisplay:10.37,2013-09-05 03:50:00,
2013-09-04 22:55:00,63.0,53.4,29.20,ENE,68,3.5,3.5,71,0.00,CLR,,0.00,WeatherDisplay:10.37,2013-09-05 03:55:00,
2013-09-04 23:00:00,63.0,53.4,29.20,NE,45,2.3,2.3,71,0.00,CLR,,0.00,WeatherDisplay:10.37,2013-09-05 04:00:00,
2013-09-04 23:01:00,63.0,53.4,29.20,NE,45,2.3,2.3,71,0.00,CLR,,0.00,WeatherDisplay:10.37,2013-09-05 04:01:00,
2013-09-04 23:02:00,63.0,53.4,29.20,ENE,68,3.5,3.5,71,0.00,CLR,,0.00,WeatherDisplay:10.37,2013-09-05 04:02:00,
2013-09-04 23:07:00,62.8,53.2,29.20,ENE,68,1.1,1.1,71,0.00,CLR,,0.00,WeatherDisplay:10.37,2013-09-05 04:07:00,
2013-09-04 23:12:00,62.8,53.2,29.20,ENE,68,3.5,3.5,71,0.00,CLR,,0.00,WeatherDisplay:10.37,2013-09-05 04:12:00,
2013-09-04 23:17:00,62.6,53.4,29.20,ENE,68,3.5,3.5,72,0.00,CLR,,0.00,WeatherDisplay:10.37,2013-09-05 04:17:00,
2013-09-04 23:22:00,62.6,53.4,29.20,NE,45,2.3,2.3,72,0.00,CLR,,0.00,WeatherDisplay:10.37,2013-09-05 04:22:00,
2013-09-04 23:27:00,62.4,53.3,29.18,NNE,22,2.3,2.3,72,0.00,CLR,,0.00,WeatherDisplay:10.37,2013-09-05 04:27:00,
2013-09-04 23:32:00,62.2,53.1,29.18,ENE,68,2.9,2.9,72,0.00,CLR,,0.00,WeatherDisplay:10.37,2013-09-05 04:32:00,
2013-09-04 23:37:00,62.2,53.1,29.18,ENE,68,3.5,3.5,72,0.00,CLR,,0.00,WeatherDisplay:10.37,2013-09-05 04:37:00,
2013-09-04 23:42:00,62.2,53.1,29.20,ENE,68,2.3,2.3,72,0.00,CLR,,0.00,WeatherDisplay:10.37,2013-09-05 04:42:00,
2013-09-04 23:47:00,62.2,53.1,29.20,NE,45,2.3,2.3,72,0.00,CLR,,0.00,WeatherDisplay:10.37,2013-09-05 04:47:00,
2013-09-04 23:52:00,62.1,52.9,29.20,NE,45,2.3,2.3,72,0.00,CLR,,0.00,WeatherDisplay:10.37,2013-09-05 04:52:00,
2013-09-04 23:57:00,62.1,53.3,29.20,NE,45,1.1,0.0,73,0.00,CLR,,0.00,WeatherDisplay:10.37,2013-09-05 04:57:00,